User: anonymous   Login
Location: Reading
(52.0000°N, 0.0000°E)
Time: 02:43:14
(UTC+01:00)
Language:

Iridium 41 - Orbit

View from above orbital plane
View from above orbital plane
View from above satellite
View from above satellite

Ground track
Ground track

The orbit data is extracted from the following two-line orbital elements,

1 25040U 97069B   18112.46388186  .00000101  00000-0  28947-4 0  9995
2 25040  86.3958 252.6352 0002264  91.4139 268.7316 14.34212880 70641
Epoch (UTC): 22 April 2018 11:07:59
Eccentricity: 0.0002264
inclination: 86.3958°
perigee height: 776 km
apogee height: 779 km
right ascension of ascending node: 252.6352°
argument of perigee: 91.4139°
revolutions per day: 14.34212880
mean anomaly at epoch: 268.7316°
orbit number at epoch: 7064

The dashed part of the orbit path shows where the satellite is in the earth's shadow,  

DLR